Temp
-7 -8 -8 -8 -7 -7 -8 -7 -7 -7 -8 -8 -8 -8 -9 -9 -8 -7 -7 -7 -7 -6 -6 -6 -6 -6 -6 -6 -6 -6 -7 -7 -7 -7 -7 -7 -7 -7 -7 -7 -7 -7 -7 -7 -7 -7 -8 -7 -7
-8 -8 -8 -9 -8 -8 -8 -8 -8 -8 -8 -8 -8 -9 -9 -8 -8 -8 -7 -7 -7 -7 -6 -6 -6 -6 -6 -6 -7 -7 -7 -7 -7 -7 -8 -7 -7 -7 -7 -7 -7 -7 -7 -7 -8 -8 -8 -8 -8
-7 -8 -9 -10 -9 -8 -8 -7 -8 -9 -9 -9 -8 -9 -9 -9 -9 -8 -8 -8 -7 -7 -6 -6 -7 -7 -7 -7 -7 -7 -7 -7 -7 -7 -7 -7 -7 -7 -7 -7 -8 -8 -8 -8 -8 -8 -8 -8 -8
-7 -8 -9 -10 -8 -8 -7 -9 -8 -8 -9 -9 -9 -9 -10 -9 -9 -8 -8 -8 -7 -7 -7 -7 -7 -7 -7 -7 -7 -8 -8 -7 -7 -7 -7 -7 -7 -7 -7 -8 -8 -8 -8 -8 -9 -8 -9 -9 -9
-7 -8 -9 -10 -9 -8 -9 -8 -9 -9 -9 -9 -9 -10 -10 -8 -8 -8 -8 -8 -7 -8 -7 -7 -7 -7 -7 -7 -8 -8 -8 -8 -8 -7 -7 -7 -7 -7 -7 -8 -8 -8 -8 -8 -9 -9 -9 -9 -9
-6 -8 -9 -10 -9 -9 -9 -8 -8 -9 -10 -9 -10 -10 -9 -9 -8 -9 -9 -8 -7 -7 -7 -8 -8 -8 -7 -8 -8 -8 -8 -8 -8 -7 -7 -7 -7 -7 -8 -8 -8 -8 -8 -9 -9 -9 -9 -10 -10
-6 -7 -9 -10 -9 -9 -10 -9 -9 -9 -10 -10 -10 -10 -9 -9 -9 -9 -9 -8 -7 -7 -7 -8 -8 -7 -8 -8 -8 -8 -8 -8 -8 -7 -7 -8 -8 -8 -8 -8 -8 -8 -9 -9 -9 -9 -10 -10 -10
-6 -7 -9 -9 -9 -9 -9 -10 -9 -9 -9 -10 -11 -10 -10 -10 -9 -9 -9 -9 -7 -7 -7 -7 -7 -8 -8 -8 -8 -8 -8 -8 -8 -8 -8 -8 -8 -9 -8 -9 -9 -9 -9 -10 -10 -10 -10 -10 -10
-6 -7 -9 -9 -9 -9 -9 -10 -9 -9 -10 -10 -11 -10 -10 -10 -9 -9 -9 -9 -8 -7 -7 -7 -8 -8 -8 -8 -8 -8 -8 -8 -8 -9 -9 -9 -9 -9 -9 -9 -9 -10 -10 -10 -10 -11 -11 -10 -10
-7 -7 -9 -9 -9 -9 -9 -10 -9 -9 -10 -10 -11 -11 -10 -10 -9 -9 -9 -9 -8 -7 -8 -8 -8 -8 -8 -8 -8 -8 -8 -8 -9 -9 -9 -9 -9 -9 -9 -10 -10 -10 -10 -10 -10 -11 -10 -10 -10
-7 -8 -9 -8 -8 -9 -9 -9 -8 -8 -10 -11 -11 -11 -10 -10 -9 -10 -10 -10 -8 -9 -8 -8 -8 -8 -8 -9 -9 -9 -9 -9 -9 -9 -9 -9 -9 -9 -10 -10 -10 -10 -10 -11 -11 -11 -11 -11 -10
-7 -7 -6 -8 -8 -8 -8 -8 -8 -8 -9 -10 -11 -11 -10 -10 -9 -10 -10 -10 -9 -9 -9 -9 -9 -9 -9 -9 -9 -8 -9 -9 -9 -9 -9 -10 -10 -10 -10 -10 -10 -11 -11 -11 -11 -11 -11 -11 -10
-7 -7 -7 -7 -7 -7 -8 -8 -9 -9 -10 -10 -10 -11 -10 -10 -10 -10 -10 -10 -10 -10 -9 -9 -9 -9 -9 -9 -9 -9 -9 -10 -10 -10 -10 -10 -10 -10 -10 -10 -10 -10 -11 -11 -11 -11 -10 -10 -10
-8 -8 -8 -8 -9 -9 -9 -9 -9 -9 -10 -11 -11 -11 -10 -10 -10 -11 -10 -10 -10 -10 -10 -10 -10 -10 -10 -10 -10 -10 -10 -10 -10 -10 -10 -10 -10 -10 -10 -10 -10 -10 -10 -10 -11 -10 -10 -10 -10
-7 -8 -8 -9 -10 -10 -9 -9 -9 -9 -9 -10 -11 -10 -9 -10 -10 -10 -10 -10 -10 -10 -10 -10 -10 -11 -10 -11 -11 -11 -11 -11 -10 -10 -10 -10 -10 -10 -10 -10 -10 -10 -10 -10 -11 -10 -10 -10 -10
-8 -7 -8 -8 -8 -9 -8 -9 -9 -8 -8 -10 -11 -10 -9 -10 -11 -11 -11 -11 -10 -10 -11 -10 -11 -11 -11 -11 -11 -11 -11 -11 -11 -11 -11 -11 -11 -10 -10 -11 -11 -10 -10 -11 -11 -11 -11 -11 -11
-8 -8 -7 -7 -8 -8 -8 -9 -9 -9 -10 -11 -10 -10 -10 -10 -10 -11 -11 -11 -10 -10 -11 -11 -10 -11 -11 -11 -11 -11 -11 -11 -11 -11 -11 -11 -11 -11 -11 -11 -10 -10 -10 -11 -11 -11 -11 -11 -12
-8 -8 -8 -8 -8 -8 -8 -8 -8 -8 -10 -10 -10 -10 -10 -10 -10 -10 -11 -11 -10 -10 -11 -11 -11 -11 -11 -11 -11 -11 -11 -11 -11 -11 -11 -11 -11 -11 -11 -10 -11 -10 -11 -11 -11 -12 -12 -12 -12
-7 -8 -8 -8 -8 -8 -8 -7 -8 -8 -9 -9 -10 -10 -10 -10 -10 -11 -11 -11 -10 -10 -11 -11 -11 -11 -11 -11 -11 -11 -11 -11 -11 -11 -11 -11 -11 -11 -11 -11 -11 -11 -11 -11 -12 -12 -12 -12 -12
-8 -7 -7 -8 -9 -8 -8 -7 -8 -9 -9 -9 -9 -10 -9 -10 -10 -10 -10 -11 -10 -10 -11 -11 -11 -11 -11 -11 -11 -11 -11 -11 -11 -11 -11 -11 -11 -11 -11 -9 -10 -11 -11 -11 -12 -12 -13 -12 -12
-8 -8 -8 -8 -9 -9 -9 -8 -9 -10 -10 -10 -10 -10 -10 -10 -9 -10 -10 -11 -10 -10 -10 -11 -11 -11 -11 -11 -11 -11 -11 -11 -11 -11 -11 -11 -11 -10 -11 -11 -10 -11 -11 -11 -12 -12 -12 -12 -12
-9 -9 -8 -8 -8 -9 -9 -9 -9 -9 -9 -9 -10 -10 -9 -9 -8 -9 -10 -10 -10 -10 -10 -11 -11 -11 -11 -11 -10 -11 -11 -11 -11 -11 -11 -11 -11 -10 -11 -11 -11 -11 -11 -12 -12 -12 -12 -12 -12
-8 -9 -9 -9 -9 -9 -9 -9 -10 -10 -9 -9 -10 -10 -9 -10 -10 -10 -10 -10 -11 -11 -11 -10 -10 -11 -11 -10 -11 -11 -11 -11 -10 -11 -11 -11 -11 -11 -11 -10 -11 -12 -12 -12 -12 -12 -13 -12 -12
-9 -9 -9 -9 -9 -9 -9 -10 -10 -9 -9 -10 -10 -10 -10 -10 -10 -10 -10 -10 -10 -10 -11 -11 -11 -11 -11 -10 -10 -11 -11 -10 -11 -10 -11 -10 -11 -11 -11 -11 -12 -12 -12 -12 -12 -13 -13 -12 -12
-10 -10 -10 -10 -9 -10 -10 -11 -10 -10 -9 -9 -9 -9 -9 -10 -10 -10 -11 -11 -10 -10 -10 -11 -11 -10 -11 -11 -11 -11 -10 -10 -11 -11 -11 -11 -11 -11 -11 -12 -12 -12 -12 -13 -13 -13 -13 -12 -12
-10 -10 -9 -10 -10 -10 -10 -11 -10 -10 -11 -10 -10 -10 -10 -9 -10 -11 -10 -10 -10 -10 -10 -10 -10 -11 -11 -11 -11 -11 -10 -10 -10 -11 -11 -11 -11 -11 -12 -12 -12 -13 -13 -13 -13 -13 -13 -13 -12
-10 -10 -10 -10 -10 -10 -10 -11 -11 -10 -10 -10 -10 -11 -11 -10 -10 -10 -11 -11 -11 -10 -10 -11 -11 -12 -12 -12 -12 -11 -11 -11 -11 -11 -11 -11 -12 -12 -12 -13 -13 -13 -13 -13 -13 -13 -13 -13 -13
-11 -11 -11 -11 -10 -9 -10 -10 -11 -11 -10 -10 -10 -10 -10 -10 -11 -12 -11 -11 -12 -11 -11 -11 -11 -11 -11 -12 -12 -12 -12 -11 -11 -11 -11 -12 -12 -12 -13 -13 -13 -13 -13 -13 -13 -13 -13 -13 -14
-11 -11 -11 -11 -11 -10 -9 -10 -11 -11 -10 -10 -11 -10 -11 -11 -11 -12 -12 -11 -11 -11 -12 -12 -12 -12 -12 -12 -12 -12 -12 -12 -12 -12 -12 -12 -12 -12 -13 -13 -13 -13 -13 -13 -13 -13 -13 -13 -13
-11 -11 -11 -10 -10 -11 -10 -10 -10 -10 -10 -10 -10 -9 -10 -10 -10 -11 -11 -10 -11 -12 -13 -13 -13 -12 -12 -12 -12 -12 -12 -12 -12 -12 -12 -12 -13 -13 -12 -12 -13 -13 -13 -13 -13 -13 -13 -13 -13
Height
5911 5912 5911 5912 5914 5912 5911 5910 5907 5908 5910 5910 5908 5905 5904 5903 5902 5903 5900 5899 5900 5900 5900 5898 5897 5895 5894 5894 5893 5893 5893 5893 5893 5894 5894 5895 5895 5895 5895 5895 5895 5894 5893 5892 5891 5890 5889 5887 5886
5909 5911 5911 5909 5912 5911 5909 5906 5906 5908 5910 5909 5909 5907 5907 5905 5901 5899 5897 5897 5896 5897 5897 5895 5894 5893 5892 5892 5892 5893 5893 5892 5893 5893 5893 5894 5894 5895 5895 5894 5894 5893 5892 5891 5890 5888 5887 5885 5883
5907 5909 5911 5907 5910 5912 5909 5906 5905 5906 5906 5908 5909 5906 5905 5902 5900 5897 5895 5894 5893 5893 5893 5892 5892 5891 5890 5891 5891 5891 5892 5892 5893 5892 5893 5894 5894 5895 5895 5894 5893 5892 5891 5889 5888 5886 5884 5882 5880
5905 5909 5909 5908 5910 5909 5910 5906 5906 5905 5906 5905 5905 5903 5902 5901 5898 5895 5893 5891 5890 5888 5889 5889 5889 5889 5889 5889 5889 5890 5890 5891 5891 5892 5892 5893 5894 5894 5894 5893 5892 5890 5889 5887 5885 5883 5882 5880 5878
5903 5906 5907 5907 5910 5909 5907 5905 5905 5905 5905 5904 5902 5901 5901 5900 5896 5894 5891 5890 5888 5885 5885 5885 5886 5887 5887 5887 5887 5887 5889 5889 5890 5891 5891 5892 5892 5893 5892 5891 5890 5888 5887 5885 5883 5881 5880 5878 5876
5902 5904 5905 5905 5910 5908 5903 5902 5902 5904 5904 5903 5902 5902 5902 5898 5894 5890 5887 5887 5886 5883 5882 5881 5884 5885 5885 5885 5885 5886 5887 5888 5889 5890 5890 5890 5891 5891 5890 5890 5888 5886 5885 5883 5881 5879 5877 5875 5873
5900 5902 5904 5904 5908 5907 5901 5901 5901 5902 5902 5902 5904 5902 5901 5898 5895 5891 5886 5886 5884 5882 5879 5880 5881 5882 5883 5884 5884 5884 5886 5887 5887 5888 5888 5889 5890 5890 5889 5888 5886 5884 5882 5881 5879 5877 5875 5872 5869
5898 5900 5902 5903 5906 5905 5903 5899 5899 5897 5898 5899 5902 5902 5900 5898 5895 5891 5885 5883 5882 5880 5879 5879 5880 5881 5881 5882 5883 5884 5885 5886 5886 5887 5887 5888 5888 5888 5887 5886 5884 5883 5880 5878 5876 5873 5871 5868 5865
5897 5899 5902 5902 5905 5902 5903 5899 5898 5897 5897 5899 5901 5901 5900 5898 5894 5889 5885 5882 5882 5880 5879 5879 5879 5880 5881 5882 5883 5884 5884 5885 5885 5886 5886 5886 5886 5885 5885 5884 5882 5880 5878 5874 5872 5869 5867 5864 5860
5897 5897 5900 5901 5901 5901 5901 5898 5897 5896 5897 5899 5899 5900 5900 5898 5893 5887 5884 5882 5882 5879 5878 5878 5879 5880 5881 5882 5882 5883 5883 5884 5884 5884 5884 5884 5884 5883 5883 5881 5879 5877 5874 5871 5869 5866 5863 5860 5856
5896 5897 5896 5898 5899 5899 5899 5898 5895 5896 5896 5896 5897 5898 5898 5898 5892 5888 5885 5884 5883 5880 5879 5879 5880 5881 5881 5881 5882 5882 5882 5882 5882 5882 5883 5883 5882 5881 5880 5878 5876 5874 5870 5868 5864 5861 5858 5855 5851
5895 5895 5895 5896 5896 5896 5899 5900 5899 5895 5895 5894 5895 5894 5896 5896 5895 5890 5887 5885 5884 5882 5881 5880 5881 5882 5881 5881 5881 5881 5881 5881 5882 5882 5882 5881 5880 5878 5877 5875 5872 5870 5867 5865 5861 5858 5854 5851 5846
5895 5896 5896 5895 5896 5897 5897 5898 5896 5895 5893 5893 5893 5892 5893 5894 5894 5891 5889 5888 5885 5883 5882 5882 5883 5882 5881 5881 5881 5881 5881 5880 5881 5881 5881 5880 5878 5876 5874 5871 5869 5867 5864 5860 5857 5853 5849 5845 5840
5894 5893 5895 5895 5895 5896 5895 5895 5891 5894 5891 5891 5891 5890 5890 5893 5894 5892 5892 5890 5887 5886 5884 5883 5883 5882 5881 5881 5881 5881 5880 5879 5880 5880 5879 5878 5876 5873 5871 5868 5865 5863 5859 5855 5850 5846 5842 5837 5831
5893 5893 5892 5893 5893 5891 5886 5890 5888 5888 5885 5887 5888 5888 5889 5889 5892 5892 5892 5891 5888 5887 5886 5885 5883 5882 5882 5881 5881 5880 5880 5880 5879 5876 5873 5871 5870 5869 5867 5863 5860 5857 5852 5847 5842 5838 5834 5830 5825
5892 5892 5891 5889 5889 5888 5888 5890 5886 5884 5882 5883 5885 5887 5888 5888 5889 5890 5891 5890 5888 5886 5885 5884 5883 5882 5882 5882 5881 5881 5880 5878 5876 5874 5871 5868 5865 5862 5860 5857 5853 5849 5845 5840 5836 5831 5826 5822 5816
5888 5888 5888 5888 5889 5887 5887 5886 5884 5881 5880 5882 5883 5883 5883 5885 5886 5887 5888 5887 5887 5885 5884 5882 5882 5881 5880 5880 5879 5879 5878 5877 5875 5872 5869 5866 5862 5857 5853 5849 5843 5840 5837 5833 5828 5823 5818 5815 5811
5885 5885 5885 5885 5885 5884 5884 5884 5883 5882 5880 5880 5880 5879 5879 5879 5881 5883 5884 5884 5885 5884 5883 5881 5879 5879 5879 5878 5877 5876 5875 5873 5871 5868 5866 5862 5857 5852 5849 5841 5836 5833 5829 5826 5821 5816 5811 5809 5805
5882 5883 5884 5883 5882 5882 5880 5882 5882 5882 5881 5879 5877 5876 5875 5874 5877 5878 5879 5880 5880 5882 5881 5879 5877 5875 5875 5874 5874 5873 5871 5867 5866 5865 5862 5858 5852 5845 5840 5833 5827 5824 5823 5818 5814 5809 5805 5801 5796
5878 5879 5879 5881 5879 5878 5877 5879 5880 5879 5877 5874 5873 5874 5873 5871 5872 5873 5875 5876 5876 5877 5876 5876 5874 5872 5870 5869 5867 5866 5864 5862 5860 5858 5855 5849 5842 5836 5830 5819 5811 5815 5814 5809 5807 5803 5797 5793 5787
5876 5876 5876 5876 5877 5874 5872 5876 5876 5873 5867 5869 5871 5872 5871 5870 5868 5868 5870 5872 5872 5873 5872 5870 5869 5867 5866 5864 5861 5859 5856 5853 5852 5850 5846 5839 5833 5825 5825 5817 5811 5809 5807 5802 5801 5796 5791 5785 5779
5873 5872 5872 5872 5873 5870 5867 5873 5865 5864 5865 5865 5868 5869 5869 5868 5866 5865 5867 5868 5868 5868 5867 5866 5864 5863 5860 5859 5855 5852 5847 5847 5846 5843 5837 5830 5826 5821 5817 5811 5802 5803 5798 5796 5795 5789 5784 5778 5771
5872 5871 5870 5870 5869 5866 5866 5869 5863 5862 5863 5864 5867 5866 5865 5863 5863 5863 5864 5863 5862 5863 5863 5863 5861 5857 5855 5853 5850 5847 5845 5842 5840 5837 5829 5826 5823 5814 5812 5805 5799 5797 5794 5792 5787 5782 5776 5770 5763
5871 5869 5868 5867 5867 5865 5865 5865 5863 5860 5861 5862 5863 5863 5861 5861 5860 5861 5860 5861 5860 5859 5859 5859 5856 5851 5846 5842 5841 5841 5838 5835 5833 5829 5826 5822 5816 5813 5807 5801 5797 5793 5790 5785 5779 5774 5768 5761 5753
5866 5866 5866 5867 5867 5865 5863 5863 5862 5860 5858 5859 5858 5859 5859 5856 5856 5855 5856 5856 5855 5855 5854 5852 5849 5845 5842 5839 5835 5833 5831 5826 5823 5821 5817 5813 5810 5805 5802 5797 5793 5788 5783 5778 5773 5766 5758 5752 5744
5865 5864 5864 5864 5865 5864 5861 5860 5862 5860 5857 5855 5855 5854 5859 5857 5855 5854 5853 5850 5852 5849 5847 5845 5842 5839 5836 5832 5828 5826 5823 5819 5815 5812 5808 5805 5802 5798 5793 5791 5787 5781 5775 5770 5763 5756 5749 5743 5733
5864 5863 5862 5861 5861 5861 5860 5859 5857 5857 5856 5854 5855 5854 5852 5851 5851 5849 5848 5846 5844 5844 5841 5839 5837 5831 5827 5823 5821 5818 5815 5811 5807 5804 5802 5802 5795 5790 5787 5782 5777 5772 5767 5761 5754 5747 5740 5733 5723
5860 5860 5860 5859 5859 5858 5858 5856 5856 5855 5853 5852 5850 5848 5849 5848 5846 5845 5843 5842 5840 5839 5835 5834 5830 5826 5821 5816 5815 5811 5807 5804 5800 5797 5794 5790 5787 5784 5780 5775 5769 5765 5759 5752 5746 5739 5730 5722 5712
5857 5855 5855 5856 5856 5854 5855 5856 5853 5850 5848 5847 5844 5842 5842 5843 5843 5842 5840 5837 5837 5834 5830 5828 5825 5819 5814 5811 5808 5806 5800 5796 5793 5788 5785 5782 5779 5776 5772 5767 5763 5756 5749 5743 5737 5728 5718 5710 5702
5852 5851 5852 5852 5852 5848 5848 5853 5849 5846 5842 5841 5840 5839 5840 5840 5838 5837 5837 5834 5831 5827 5824 5820 5814 5808 5804 5803 5799 5795 5791 5788 5786 5783 5781 5778 5774 5769 5765 5761 5755 5749 5742 5733 5725 5716 5706 5698 5690
Wind_Speed
14 10 7 5 6 5 4 5 8 13 12 8 9 13 18 23 24 23 22 20 18 14 13 13 12 11 10 9 10 11 12 13 13 14 13 11 8 8 6 7 8 8 9 11 11 13 15 16 18
16 12 8 5 4 5 6 7 10 17 12 11 13 16 23 29 26 24 24 23 20 21 17 13 12 11 11 11 11 11 12 12 13 13 10 8 7 6 6 6 8 10 11 13 15 16 17 19 19
17 15 11 5 5 2 4 8 8 13 8 9 14 19 23 29 24 20 21 19 19 22 22 15 11 10 12 13 12 11 12 12 12 10 8 7 6 5 6 7 9 11 13 15 16 18 19 20 21
17 17 15 9 4 5 4 4 11 7 10 16 23 26 29 29 22 21 20 18 18 18 20 17 12 12 12 12 10 10 11 11 9 8 7 6 6 5 7 9 12 14 16 16 19 22 22 22 22
16 21 17 10 5 7 5 3 7 14 15 18 24 26 28 19 15 14 16 18 17 15 18 17 13 12 12 10 9 8 9 7 7 7 6 6 6 7 10 12 15 17 19 20 22 21 21 21 23
14 20 22 14 11 2 3 4 3 13 17 19 23 26 26 24 28 24 22 20 20 14 11 10 12 10 10 7 6 6 5 5 5 6 6 7 8 10 12 14 16 17 19 21 19 20 21 22 24
12 20 25 18 10 9 6 6 5 3 5 16 22 24 23 26 27 24 19 18 17 8 7 6 7 8 7 5 4 3 3 4 5 6 7 9 10 12 14 14 15 17 16 18 19 20 22 24 27
11 16 28 22 11 16 14 6 6 2 15 16 22 22 24 28 25 24 18 17 10 7 4 5 5 4 3 1 1 2 3 4 4 7 8 10 11 11 12 13 14 15 16 17 20 23 25 27 29
9 14 28 26 12 20 17 12 11 1 5 14 21 22 23 26 28 22 17 15 8 3 3 3 1 2 2 2 2 3 3 4 5 6 7 9 9 9 10 11 13 16 19 22 24 24 23 26 28
6 16 31 29 19 21 19 15 12 4 5 7 14 18 20 22 23 17 15 10 5 3 3 2 2 2 1 2 1 1 3 4 4 5 7 6 6 7 10 12 15 19 21 21 21 20 24 27 28
8 19 34 32 27 24 21 19 21 20 12 8 13 16 18 17 17 20 14 10 6 8 4 5 3 2 2 2 2 2 2 2 4 5 4 4 6 10 11 13 16 19 21 22 24 25 27 29 30
7 19 23 31 31 31 27 29 26 22 17 15 17 20 18 16 17 20 20 17 6 11 10 13 10 8 7 5 3 3 3 4 5 4 4 6 9 11 12 15 19 20 23 22 24 24 25 26 29
3 10 12 17 19 14 18 17 25 20 20 23 22 24 23 10 15 15 19 16 11 8 8 9 9 10 10 9 8 7 6 6 5 5 6 7 9 12 15 18 21 22 24 24 24 25 27 30 32
1 4 16 24 22 22 23 25 30 14 21 23 21 23 15 11 8 9 11 14 12 11 9 11 10 10 9 9 8 7 7 8 9 10 11 11 13 15 18 21 23 23 24 26 28 29 32 32 33
5 8 11 15 23 25 34 22 22 16 23 27 25 21 15 13 8 9 8 14 14 12 9 9 11 12 12 9 8 9 9 10 13 17 19 20 20 20 21 21 24 26 27 29 33 33 34 35 34
8 13 15 18 21 26 22 9 16 9 13 21 21 19 14 10 13 8 7 11 15 14 15 11 8 6 7 7 7 8 11 14 15 17 20 23 24 24 25 25 27 28 29 33 36 38 38 39 40
15 18 17 18 15 19 14 14 13 7 6 20 20 16 16 12 9 4 11 8 11 13 16 17 11 10 7 10 10 11 13 14 15 17 20 24 27 29 32 30 33 29 26 33 39 43 43 41 43
20 21 20 19 19 22 23 13 14 10 8 15 17 20 19 18 18 15 7 10 8 12 15 18 20 23 14 13 15 17 18 20 19 18 20 26 30 34 33 37 40 33 24 33 39 46 45 45 47
22 22 22 23 25 26 27 16 12 11 9 13 18 19 24 20 20 16 12 15 12 12 18 18 22 25 17 16 17 17 21 24 18 17 23 29 32 35 40 42 40 24 28 34 41 45 47 48 48
21 22 23 19 23 26 25 19 15 18 19 20 15 19 20 23 22 24 16 20 15 20 18 23 19 20 19 19 22 22 23 23 25 26 27 33 38 34 41 38 31 31 31 37 43 44 46 47 47
19 19 21 20 18 25 29 19 24 27 28 24 13 15 18 19 23 27 23 23 20 17 20 19 16 20 22 24 25 26 29 30 32 35 36 40 46 32 38 42 39 36 36 38 44 42 44 46 50
15 15 14 14 10 11 23 12 15 23 24 20 13 15 19 18 12 5 14 15 16 17 16 15 16 19 25 27 30 31 34 34 34 37 41 41 43 42 36 46 39 40 39 41 40 45 45 48 50
12 10 10 9 7 13 13 10 13 16 18 19 18 17 19 11 17 9 12 17 19 19 14 14 21 30 31 32 34 35 38 40 38 41 38 40 47 37 36 36 42 40 40 44 42 46 51 51 54
13 10 9 8 7 13 10 11 9 16 14 16 21 19 16 7 10 17 16 16 14 15 16 21 22 27 30 32 33 36 38 41 40 40 44 44 38 38 35 37 39 44 41 42 45 48 52 53 57
10 8 8 9 7 11 12 8 12 10 18 18 25 21 19 14 12 15 20 19 19 22 20 20 25 26 28 30 30 32 34 34 36 37 38 34 36 34 34 42 42 43 43 46 48 51 52 56 58
10 9 10 7 5 7 15 19 15 14 15 21 21 27 21 20 15 19 28 25 28 32 22 31 30 27 27 30 33 31 32 35 35 34 33 31 31 35 31 37 43 43 45 48 54 54 53 58 59
11 9 13 13 8 7 13 14 15 18 20 20 21 21 25 21 25 25 23 30 30 25 30 34 32 30 32 35 35 32 33 32 30 29 29 29 33 35 38 41 42 44 48 50 51 54 57 59 62
14 15 14 14 18 12 11 15 19 20 24 27 27 29 21 26 24 22 25 28 23 30 35 35 33 36 31 32 30 29 29 32 31 32 33 35 35 36 37 41 42 44 47 51 55 60 64 64 62
19 23 22 20 19 20 15 11 17 22 25 26 30 32 27 20 23 28 31 31 34 35 29 31 34 38 35 29 31 29 31 30 29 32 31 31 32 35 39 42 45 47 51 55 57 63 62 60 56
27 29 25 25 25 26 24 12 19 23 27 28 30 32 33 34 33 33 31 31 31 36 37 39 42 40 39 32 30 28 34 32 30 30 29 31 33 37 41 45 49 51 54 58 57 60 62 54 55
Wind_Direction
220 206 200 235 221 93 71 46 41 50 62 53 3 345 352 349 325 312 306 306 306 304 297 295 306 319 317 313 310 308 306 306 309 308 308 310 324 338 347 349 337 333 330 323 320 316 311 304 300
215 202 201 228 164 107 53 61 35 30 59 21 12 358 337 330 328 305 297 288 286 287 288 296 303 308 305 299 299 300 303 306 305 300 303 312 323 326 328 331 322 323 318 317 315 311 305 304 301
212 196 190 197 137 187 284 312 37 21 48 342 342 1 351 349 335 311 304 294 285 278 273 280 293 296 295 294 291 297 298 299 298 300 304 307 308 312 308 308 311 309 310 312 312 312 310 306 303
216 193 193 208 119 223 287 92 323 48 357 355 354 2 347 337 330 316 298 311 300 285 267 269 277 289 297 292 284 286 292 296 289 296 300 299 301 297 295 303 299 302 308 306 307 311 309 305 307
226 192 190 201 127 122 121 102 17 0 358 345 359 358 341 339 328 331 293 300 302 299 272 262 264 288 302 298 282 282 293 298 292 292 295 294 289 288 290 297 305 310 310 311 312 317 315 314 312
239 200 191 195 173 157 227 275 131 6 350 352 356 344 339 358 350 341 327 302 301 297 292 270 263 290 303 293 281 289 292 282 290 289 286 282 285 285 297 305 313 315 316 319 321 324 321 319 317
243 209 189 202 190 238 261 261 330 177 60 0 347 335 340 7 355 347 320 300 305 308 310 276 268 282 292 288 289 288 289 281 281 285 282 279 290 304 309 316 323 326 333 331 326 326 324 319 318
236 210 192 204 204 239 251 269 305 244 354 351 325 334 342 353 352 349 327 309 312 310 314 275 271 287 281 259 287 275 280 288 298 300 301 307 306 306 320 328 335 340 334 329 326 326 326 325 323
257 199 193 211 208 225 218 242 262 304 354 322 313 324 334 340 339 336 339 323 327 302 323 330 293 249 235 247 308 313 329 329 332 317 308 304 314 335 343 340 336 336 332 329 327 329 330 331 329
248 188 196 211 211 231 228 223 250 227 249 295 319 321 333 338 336 350 344 333 351 17 2 23 305 287 320 15 339 348 3 334 318 314 316 320 350 356 336 333 341 339 343 340 333 329 327 330 326
191 187 200 213 223 222 228 221 283 275 268 297 306 318 322 344 6 9 343 353 12 46 62 63 38 51 59 60 39 28 11 316 328 324 344 346 347 337 341 345 342 347 349 340 334 326 320 320 322
210 214 227 221 231 237 243 265 290 296 279 272 282 298 312 324 357 20 8 1 20 61 61 77 79 76 69 62 59 61 11 28 16 3 338 330 341 345 343 341 340 342 343 335 336 330 320 317 319
226 265 271 257 262 264 255 256 289 295 287 273 278 283 292 299 339 15 4 5 17 30 43 67 62 66 66 54 55 49 39 37 8 339 330 338 335 334 334 337 334 333 338 338 333 331 325 322 321
59 202 238 253 261 253 269 270 279 273 260 262 273 279 288 310 317 357 7 359 13 25 29 34 29 28 37 38 39 36 28 9 338 320 312 315 321 328 325 325 324 328 330 335 335 334 333 330 330
202 200 202 205 218 233 246 252 268 260 247 248 263 276 291 303 308 328 43 3 1 13 18 13 20 20 20 23 11 3 354 340 328 323 322 324 321 318 317 318 320 323 327 332 336 333 332 330 330
227 228 218 217 223 234 257 270 281 282 263 233 256 278 295 305 300 11 17 12 356 3 355 341 346 1 13 4 357 346 341 336 332 327 324 325 323 323 316 314 314 320 329 331 331 334 332 331 330
241 239 236 239 242 243 257 244 265 293 235 223 257 284 292 277 268 288 331 357 349 349 347 333 333 321 334 331 331 317 312 311 318 316 317 314 314 314 314 310 302 312 319 329 330 331 331 328 328
244 248 251 254 267 273 289 251 265 276 238 231 251 271 277 280 281 282 295 297 315 316 323 330 338 338 309 313 307 300 302 303 308 306 307 307 308 308 311 311 307 302 313 326 328 328 327 326 327
250 251 252 251 253 273 285 262 264 334 297 269 262 271 272 280 279 278 262 277 299 305 305 314 329 323 304 302 301 295 300 303 311 307 303 300 301 302 307 305 297 288 319 326 326 324 325 324 326
260 263 266 262 264 278 278 295 311 306 301 281 262 266 272 270 279 268 268 284 292 295 309 320 311 303 294 286 288 292 290 298 305 304 300 298 293 296 304 295 306 329 328 329 325 322 323 322 322
274 268 268 271 263 272 278 294 287 269 275 274 258 268 265 275 288 268 257 270 292 298 307 300 293 286 287 286 287 293 295 301 302 302 299 292 291 291 300 299 304 324 324 327 322 326 325 324 322
264 269 271 276 274 256 251 272 259 259 270 261 240 269 272 291 291 251 263 284 286 283 290 290 283 283 287 286 289 292 293 294 296 296 293 303 301 297 301 298 310 321 324 324 317 323 322 322 320
275 270 279 285 262 242 258 207 257 262 256 231 243 262 274 340 317 315 271 275 290 260 269 287 292 293 288 290 283 282 283 288 289 288 296 299 299 305 300 291 308 315 320 318 313 316 315 319 323
288 283 297 295 293 251 265 222 276 269 260 236 248 262 251 264 239 267 300 286 280 299 295 301 312 306 306 302 293 288 286 285 287 287 291 293 296 298 293 297 303 315 316 314 313 312 312 320 320
326 313 289 302 302 265 264 243 240 294 268 253 262 275 265 254 242 254 258 287 295 307 314 322 320 315 316 315 306 297 296 292 292 290 290 289 288 288 296 299 306 308 308 310 308 309 314 318 318
315 298 316 319 287 259 265 264 255 249 272 273 283 288 292 287 266 296 303 299 308 308 303 312 320 313 310 307 306 304 301 295 293 295 298 292 288 290 293 300 303 306 309 308 310 308 310 313 318
304 313 321 310 295 258 271 264 253 256 253 270 275 275 280 279 293 292 289 295 296 304 300 306 316 308 293 291 299 296 297 297 295 293 290 289 294 298 303 305 308 307 308 310 312 315 313 313 312
294 290 291 299 305 295 265 261 260 267 271 279 283 285 275 286 289 290 284 295 322 323 308 309 314 313 305 294 299 294 293 293 293 292 292 294 297 302 310 311 311 310 312 312 312 312 312 314 312
273 281 286 290 289 295 307 279 262 269 270 271 266 275 283 295 293 287 283 288 304 308 305 304 303 304 298 304 295 285 284 287 291 293 296 297 301 308 309 310 309 310 311 312 312 314 313 312 312
281 284 286 283 283 281 284 280 290 282 275 276 274 273 276 281 289 298 291 298 305 307 303 296 307 305 303 304 297 278 276 278 281 288 295 297 301 306 308 310 312 310 311 309 316 317 312 308 313